Powrót do katalogu

COSMOS 2251 DEB

AktywnyLEO
NORAD 39109·DEBRIS·🇷🇺 Russia

Wystrzelony Jun 16, 1993 z Plesetsk Cosmodrome

Loading…

Następne Przeloty (najbliższe 24 godziny)

TLE

Starzejące sięSource: Space-Track

Epoka: Sep 11, 2026, 04:05 UTC

1 39109U 93036BTY 26254.17071822  .00001981  00000-0  31086-3 0  9990
2 39109  74.0418  55.6680 0056787  89.8498  33.0750 14.72286402691816

Śledź COSMOS 2251 DEB w czasie rzeczywistym z AllMySat

Download on the App Store